Time,TemperatureF,DewpointF,PressureIn,WindDirection,WindDirectionDegrees,WindSpeedMPH,WindSpeedGustMPH,Humidity,HourlyPrecipIn,Conditions,Clouds,dailyrainin,SoftwareType,DateUTC
2013-03-11 00:02:00,40.1,31.1,30.02,NW,310,0.0,4.0,70,0.00,,,0.00,meteohub,2013-03-11 05:02:00,
2013-03-11 00:07:00,39.9,31.3,30.03,NW,310,1.0,3.0,71,0.00,,,0.00,meteohub,2013-03-11 05:07:00,
2013-03-11 00:17:00,39.6,31.6,30.03,NW,308,1.0,3.0,73,0.00,,,0.00,meteohub,2013-03-11 05:17:00,
2013-03-11 00:22:00,39.4,31.8,30.04,NW,308,2.0,3.0,74,0.00,,,0.00,meteohub,2013-03-11 05:22:00,
2013-03-11 00:27:00,39.0,31.8,30.04,NW,308,2.0,3.0,75,0.00,,,0.00,meteohub,2013-03-11 05:27:00,
2013-03-11 00:32:00,38.7,31.8,30.04,NW,308,0.0,2.0,76,0.00,,,0.00,meteohub,2013-03-11 05:32:00,
2013-03-11 00:37:00,38.1,31.6,30.05,NW,308,1.0,2.0,77,0.00,,,0.00,meteohub,2013-03-11 05:37:00,
2013-03-11 00:42:00,37.8,31.5,30.06,NW,308,1.0,2.0,78,0.00,,,0.00,meteohub,2013-03-11 05:42:00,
2013-03-11 00:52:00,37.0,31.5,30.06,NW,308,1.0,2.0,80,0.00,,,0.00,meteohub,2013-03-11 05:52:00,
2013-03-11 00:57:00,36.9,31.6,30.06,NW,308,1.0,2.0,81,0.00,,,0.00,meteohub,2013-03-11 05:57:00,
2013-03-11 01:07:00,36.9,31.3,30.06,West,267,2.0,3.0,80,0.00,,,0.00,meteohub,2013-03-11 06:07:00,
2013-03-11 01:12:00,37.0,31.5,30.06,WNW,282,3.0,3.0,80,0.00,,,0.00,meteohub,2013-03-11 06:12:00,
2013-03-11 01:22:00,37.8,31.8,30.06,WNW,288,3.0,3.0,79,0.00,,,0.00,meteohub,2013-03-11 06:22:00,
2013-03-11 01:27:00,38.1,31.8,30.06,NW,324,4.0,6.0,78,0.00,,,0.00,meteohub,2013-03-11 06:27:00,
2013-03-11 01:32:00,38.8,32.0,30.08,West,274,6.0,6.0,76,0.00,,,0.00,meteohub,2013-03-11 06:32:00,
2013-03-11 01:42:00,39.6,32.4,30.07,NW,313,2.0,6.0,75,0.00,,,0.00,meteohub,2013-03-11 06:42:00,
2013-03-11 01:47:00,39.7,32.2,30.08,NW,322,3.0,6.0,74,0.00,,,0.00,meteohub,2013-03-11 06:47:00,
2013-03-11 01:52:00,39.7,32.2,30.08,West,281,3.0,6.0,74,0.00,,,0.00,meteohub,2013-03-11 06:52:00,
2013-03-11 02:02:00,39.6,32.0,30.08,NW,308,3.0,5.0,74,0.00,,,0.00,meteohub,2013-03-11 07:02:00,
2013-03-11 02:07:00,39.6,32.4,30.08,WNW,299,3.0,5.0,75,0.00,,,0.00,meteohub,2013-03-11 07:07:00,
2013-03-11 02:12:00,39.6,32.0,30.08,WNW,301,2.0,5.0,74,0.00,,,0.00,meteohub,2013-03-11 07:12:00,
2013-03-11 02:22:00,39.2,32.0,30.08,NW,318,2.0,4.0,75,0.00,,,0.00,meteohub,2013-03-11 07:22:00,
2013-03-11 02:27:00,39.0,31.8,30.08,NW,314,3.0,5.0,75,0.00,,,0.00,meteohub,2013-03-11 07:27:00,
2013-03-11 02:37:00,38.8,32.0,30.08,WNW,291,2.0,5.0,76,0.00,,,0.00,meteohub,2013-03-11 07:37:00,
2013-03-11 02:42:00,38.7,31.8,30.08,WNW,297,4.0,5.0,76,0.00,,,0.00,meteohub,2013-03-11 07:42:00,
2013-03-11 02:47:00,38.5,31.6,30.08,NW,309,2.0,5.0,76,0.00,,,0.00,meteohub,2013-03-11 07:47:00,
2013-03-11 02:52:00,38.5,31.6,30.07,NW,323,2.0,4.0,76,0.00,,,0.00,meteohub,2013-03-11 07:52:00,
2013-03-11 03:02:00,38.3,31.1,30.08,WNW,302,3.0,8.0,75,0.00,,,0.00,meteohub,2013-03-11 08:02:00,
2013-03-11 03:07:00,38.1,30.9,30.07,NW,313,3.0,8.0,75,0.00,,,0.00,meteohub,2013-03-11 08:07:00,
2013-03-11 03:12:00,37.9,30.7,30.08,NW,311,2.0,7.0,75,0.00,,,0.00,meteohub,2013-03-11 08:12:00,
2013-03-11 03:17:00,37.9,30.7,30.07,WNW,302,2.0,6.0,75,0.00,,,0.00,meteohub,2013-03-11 08:17:00,
2013-03-11 03:22:00,37.9,30.7,30.08,NNW,329,3.0,6.0,75,0.00,,,0.00,meteohub,2013-03-11 08:22:00,
2013-03-11 03:27:00,37.8,30.6,30.08,NW,307,2.0,6.0,75,0.00,,,0.00,meteohub,2013-03-11 08:27:00,
2013-03-11 03:32:00,37.6,30.7,30.08,NW,307,2.0,6.0,76,0.00,,,0.00,meteohub,2013-03-11 08:32:00,
2013-03-11 03:37:00,37.6,30.7,30.08,WNW,288,3.0,5.0,76,0.00,,,0.00,meteohub,2013-03-11 08:37:00,
2013-03-11 03:42:00,37.2,30.4,30.07,NW,316,3.0,5.0,76,0.00,,,0.00,meteohub,2013-03-11 08:42:00,
2013-03-11 03:47:00,37.2,30.7,30.07,NW,304,2.0,6.0,77,0.00,,,0.00,meteohub,2013-03-11 08:47:00,
2013-03-11 03:52:00,37.2,30.4,30.08,NW,306,2.0,6.0,76,0.00,,,0.00,meteohub,2013-03-11 08:52:00,
2013-03-11 03:57:00,37.0,30.2,30.08,West,279,4.0,6.0,76,0.00,,,0.00,meteohub,2013-03-11 08:57:00,
2013-03-11 04:02:00,37.0,30.2,30.08,NW,305,2.0,5.0,76,0.00,,,0.00,meteohub,2013-03-11 09:02:00,
2013-03-11 04:07:00,36.9,30.0,30.08,NW,311,3.0,5.0,76,0.00,,,0.00,meteohub,2013-03-11 09:07:00,
2013-03-11 04:12:00,36.7,29.8,30.07,WNW,302,2.0,5.0,76,0.00,,,0.00,meteohub,2013-03-11 09:12:00,
2013-03-11 04:17:00,36.5,30.0,30.07,WNW,302,2.0,5.0,77,0.00,,,0.00,meteohub,2013-03-11 09:17:00,
2013-03-11 04:22:00,36.3,29.8,30.07,WNW,302,1.0,5.0,77,0.00,,,0.00,meteohub,2013-03-11 09:22:00,
2013-03-11 04:27:00,36.1,29.7,30.08,WNW,301,1.0,4.0,77,0.00,,,0.00,meteohub,2013-03-11 09:27:00,
2013-03-11 04:32:00,36.0,29.8,30.07,WNW,296,1.0,4.0,78,0.00,,,0.00,meteohub,2013-03-11 09:32:00,
2013-03-11 04:37:00,35.8,29.7,30.07,WNW,296,1.0,4.0,78,0.00,,,0.00,meteohub,2013-03-11 09:37:00,
2013-03-11 04:47:00,35.4,29.5,30.06,NW,317,3.0,3.0,79,0.00,,,0.00,meteohub,2013-03-11 09:47:00,
2013-03-11 04:52:00,35.2,29.3,30.06,NW,315,2.0,3.0,79,0.00,,,0.00,meteohub,2013-03-11 09:52:00,
2013-03-11 04:57:00,35.2,29.3,30.06,NW,319,2.0,3.0,79,0.00,,,0.00,meteohub,2013-03-11 09:57:00,
2013-03-11 05:07:00,35.2,29.3,30.06,NNW,327,3.0,4.0,79,0.00,,,0.00,meteohub,2013-03-11 10:07:00,
2013-03-11 05:12:00,35.1,29.1,30.06,West,281,2.0,5.0,79,0.00,,,0.00,meteohub,2013-03-11 10:12:00,
2013-03-11 05:22:00,35.2,29.3,30.05,WNW,298,4.0,6.0,79,0.00,,,0.00,meteohub,2013-03-11 10:22:00,
2013-03-11 05:32:00,35.2,29.3,30.06,West,270,2.0,6.0,79,0.00,,,0.00,meteohub,2013-03-11 10:32:00,
2013-03-11 05:37:00,35.2,29.3,30.06,West,275,3.0,6.0,79,0.00,,,0.00,meteohub,2013-03-11 10:37:00,
2013-03-11 05:47:00,35.2,29.3,30.06,West,267,2.0,8.0,79,0.00,,,0.00,meteohub,2013-03-11 10:47:00,
2013-03-11 05:52:00,35.2,29.3,30.06,NW,309,4.0,8.0,79,0.00,,,0.00,meteohub,2013-03-11 10:52:00,
2013-03-11 05:57:00,35.2,29.1,30.06,WNW,300,2.0,8.0,78,0.00,,,0.00,meteohub,2013-03-11 10:57:00,
2013-03-11 06:02:00,35.2,29.1,30.06,West,281,3.0,8.0,78,0.00,,,0.00,meteohub,2013-03-11 11:02:00,
2013-03-11 06:07:00,35.2,29.1,30.06,WNW,295,2.0,7.0,78,0.00,,,0.00,meteohub,2013-03-11 11:07:00,
2013-03-11 06:12:00,35.2,29.3,30.06,WNW,288,2.0,7.0,79,0.00,,,0.00,meteohub,2013-03-11 11:12:00,
2013-03-11 06:17:00,35.2,29.3,30.06,WNW,300,2.0,6.0,79,0.00,,,0.00,meteohub,2013-03-11 11:17:00,
2013-03-11 06:22:00,35.2,29.3,30.06,West,267,4.0,7.0,79,0.00,,,0.00,meteohub,2013-03-11 11:22:00,
2013-03-11 06:27:00,35.2,29.3,30.06,West,281,2.0,7.0,79,0.00,,,0.00,meteohub,2013-03-11 11:27:00,
2013-03-11 06:32:00,35.1,29.1,30.06,WNW,293,3.0,7.0,79,0.00,,,0.00,meteohub,2013-03-11 11:32:00,
2013-03-11 06:37:00,35.1,29.1,30.06,WNW,289,2.0,6.0,79,0.00,,,0.00,meteohub,2013-03-11 11:37:00,
2013-03-11 06:42:00,35.1,29.1,30.06,WNW,302,2.0,6.0,79,0.00,,,0.00,meteohub,2013-03-11 11:42:00,
2013-03-11 06:52:00,34.9,29.3,30.06,WNW,300,3.0,6.0,80,0.00,,,0.00,meteohub,2013-03-11 11:52:00,
2013-03-11 06:57:00,34.7,28.9,30.06,WNW,289,4.0,6.0,79,0.00,,,0.00,meteohub,2013-03-11 11:57:00,
2013-03-11 07:02:00,34.7,28.9,30.07,WNW,290,2.0,8.0,79,0.00,,,0.00,meteohub,2013-03-11 12:02:00,
2013-03-11 07:07:00,34.7,28.9,30.07,WNW,288,3.0,8.0,79,0.00,,,0.00,meteohub,2013-03-11 12:07:00,
2013-03-11 07:12:00,34.5,28.8,30.07,West,281,3.0,8.0,79,0.00,,,0.00,meteohub,2013-03-11 12:12:00,
2013-03-11 07:17:00,34.7,28.9,30.07,NW,306,4.0,7.0,79,0.00,,,0.00,meteohub,2013-03-11 12:17:00,
2013-03-11 07:22:00,34.5,28.8,30.07,WNW,294,2.0,7.0,79,0.00,,,0.00,meteohub,2013-03-11 12:22:00,
2013-03-11 07:27:00,34.5,28.9,30.07,West,263,2.0,7.0,80,0.00,,,0.00,meteohub,2013-03-11 12:27:00,
2013-03-11 07:32:00,34.3,28.8,30.07,West,275,3.0,6.0,80,0.00,,,0.00,meteohub,2013-03-11 12:32:00,
2013-03-11 07:42:00,34.3,28.8,30.07,West,277,2.0,5.0,80,0.00,,,0.00,meteohub,2013-03-11 12:42:00,
2013-03-11 07:47:00,34.2,28.9,30.07,NW,313,3.0,5.0,81,0.00,,,0.00,meteohub,2013-03-11 12:47:00,
2013-03-11 07:52:00,34.2,28.6,30.07,WNW,302,3.0,5.0,80,0.00,,,0.00,meteohub,2013-03-11 12:52:00,
2013-03-11 07:57:00,34.3,29.1,30.08,WSW,242,5.0,7.0,81,0.00,,,0.00,meteohub,2013-03-11 12:57:00,
2013-03-11 08:07:00,34.3,29.5,30.08,West,265,2.0,8.0,82,0.00,,,0.00,meteohub,2013-03-11 13:07:00,
2013-03-11 08:12:00,34.3,29.5,30.08,WNW,300,1.0,8.0,82,0.00,,,0.00,meteohub,2013-03-11 13:12:00,
2013-03-11 08:17:00,34.5,29.7,30.08,NW,309,4.0,6.0,82,0.00,,,0.00,meteohub,2013-03-11 13:17:00,
2013-03-11 08:22:00,35.1,30.2,30.08,WNW,288,2.0,6.0,82,0.00,,,0.00,meteohub,2013-03-11 13:22:00,
2013-03-11 08:27:00,35.8,30.6,30.08,WSW,256,2.0,6.0,81,0.00,,,0.00,meteohub,2013-03-11 13:27:00,
2013-03-11 08:32:00,36.7,31.1,30.09,West,267,4.0,5.0,80,0.00,,,0.00,meteohub,2013-03-11 13:32:00,
2013-03-11 08:42:00,38.5,31.8,30.09,West,281,4.0,7.0,77,0.00,,,0.00,meteohub,2013-03-11 13:42:00,
2013-03-11 08:47:00,39.0,31.8,30.09,WNW,294,3.0,7.0,75,0.00,,,0.00,meteohub,2013-03-11 13:47:00,
2013-03-11 08:52:00,39.7,32.5,30.09,WSW,246,2.0,7.0,75,0.00,,,0.00,meteohub,2013-03-11 13:52:00,
2013-03-11 08:57:00,40.1,32.5,30.09,WNW,294,4.0,7.0,74,0.00,,,0.00,meteohub,2013-03-11 13:57:00,
2013-03-11 09:02:00,40.5,32.5,30.09,WSW,248,2.0,7.0,73,0.00,,,0.00,meteohub,2013-03-11 14:02:00,
2013-03-11 09:07:00,41.0,32.7,30.10,WNW,297,4.0,7.0,72,0.00,,,0.00,meteohub,2013-03-11 14:07:00,
2013-03-11 09:12:00,41.5,33.6,30.10,West,271,3.0,9.0,73,0.00,,,0.00,meteohub,2013-03-11 14:12:00,
2013-03-11 09:17:00,42.3,33.6,30.10,WNW,298,4.0,9.0,71,0.00,,,0.00,meteohub,2013-03-11 14:17:00,
2013-03-11 09:27:00,43.9,33.6,30.10,WNW,297,4.0,9.0,67,0.00,,,0.00,meteohub,2013-03-11 14:27:00,
2013-03-11 09:32:00,44.4,34.2,30.11,SW,214,3.0,9.0,67,0.00,,,0.00,meteohub,2013-03-11 14:32:00,
2013-03-11 09:37:00,45.0,34.3,30.11,WSW,252,3.0,9.0,66,0.00,,,0.00,meteohub,2013-03-11 14:37:00,
2013-03-11 09:42:00,45.5,34.0,30.11,WSW,240,3.0,9.0,64,0.00,,,0.00,meteohub,2013-03-11 14:42:00,
2013-03-11 09:47:00,45.9,34.0,30.11,NNW,333,6.0,8.0,63,0.00,,,0.00,meteohub,2013-03-11 14:47:00,
2013-03-11 09:52:00,46.0,34.2,30.11,West,268,7.0,11.0,63,0.00,,,0.00,meteohub,2013-03-11 14:52:00,
2013-03-11 10:02:00,46.9,34.2,30.11,WNW,296,7.0,14.0,61,0.00,,,0.00,meteohub,2013-03-11 15:02:00,
2013-03-11 10:12:00,47.5,35.6,30.11,West,274,4.0,13.0,63,0.00,,,0.00,meteohub,2013-03-11 15:12:00,
2013-03-11 10:17:00,47.8,34.2,30.11,WSW,238,5.0,12.0,59,0.00,,,0.00,meteohub,2013-03-11 15:17:00,
2013-03-11 10:27:00,48.0,34.3,30.11,WNW,301,5.0,11.0,59,0.00,,,0.00,meteohub,2013-03-11 15:27:00,
2013-03-11 10:37:00,48.4,33.4,30.11,NW,307,3.0,11.0,56,0.00,,,0.00,meteohub,2013-03-11 15:37:00,
2013-03-11 10:42:00,48.7,33.3,30.11,WNW,303,4.0,9.0,55,0.00,,,0.00,meteohub,2013-03-11 15:42:00,
2013-03-11 10:47:00,48.7,33.8,30.11,WSW,256,7.0,12.0,56,0.00,,,0.00,meteohub,2013-03-11 15:47:00,
2013-03-11 10:52:00,48.7,31.8,30.11,NW,307,3.0,12.0,52,0.00,,,0.00,meteohub,2013-03-11 15:52:00,
2013-03-11 11:02:00,49.3,30.9,30.11,WNW,294,4.0,11.0,49,0.00,,,0.00,meteohub,2013-03-11 16:02:00,
2013-03-11 11:12:00,49.1,32.2,30.11,WSW,250,2.0,12.0,52,0.00,,,0.00,meteohub,2013-03-11 16:12:00,
2013-03-11 11:22:00,50.2,30.2,30.11,NW,309,7.0,10.0,46,0.00,,,0.00,meteohub,2013-03-11 16:22:00,
2013-03-11 11:27:00,49.8,28.2,30.11,North,0,7.0,10.0,43,0.00,,,0.00,meteohub,2013-03-11 16:27:00,
2013-03-11 11:37:00,49.6,28.6,30.11,West,280,10.0,13.0,44,0.00,,,0.00,meteohub,2013-03-11 16:37:00,
2013-03-11 11:42:00,49.8,30.4,30.11,NW,319,5.0,13.0,47,0.00,,,0.00,meteohub,2013-03-11 16:42:00,
2013-03-11 11:52:00,50.5,29.5,30.11,NW,323,6.0,11.0,44,0.00,,,0.00,meteohub,2013-03-11 16:52:00,
2013-03-11 12:02:00,50.5,28.2,30.11,NNW,342,6.0,17.0,42,0.00,,,0.00,meteohub,2013-03-11 17:02:00,
2013-03-11 12:07:00,50.5,28.9,30.11,WSW,257,3.0,17.0,43,0.00,,,0.00,meteohub,2013-03-11 17:07:00,
2013-03-11 12:17:00,50.9,30.9,30.10,WNW,296,3.0,12.0,46,0.00,,,0.00,meteohub,2013-03-11 17:17:00,
2013-03-11 12:27:00,51.6,28.8,30.10,NW,320,4.0,10.0,41,0.00,,,0.00,meteohub,2013-03-11 17:27:00,
2013-03-11 12:37:00,51.6,29.3,30.10,NW,319,8.0,15.0,42,0.00,,,0.00,meteohub,2013-03-11 17:37:00,
2013-03-11 12:42:00,51.3,28.4,30.10,WSW,238,5.0,15.0,41,0.00,,,0.00,meteohub,2013-03-11 17:42:00,
2013-03-11 12:47:00,51.4,30.2,30.10,WNW,294,5.0,14.0,44,0.00,,,0.00,meteohub,2013-03-11 17:47:00,
2013-03-11 12:57:00,52.3,33.8,30.10,West,269,5.0,12.0,49,0.00,,,0.00,meteohub,2013-03-11 17:57:00,
2013-03-11 13:07:00,53.1,31.1,30.09,NW,321,4.0,11.0,43,0.00,,,0.00,meteohub,2013-03-11 18:07:00,
2013-03-11 13:12:00,53.1,30.6,30.09,WNW,302,4.0,11.0,42,0.00,,,0.00,meteohub,2013-03-11 18:12:00,
2013-03-11 13:17:00,53.1,31.1,30.09,NW,313,5.0,11.0,43,0.00,,,0.00,meteohub,2013-03-11 18:17:00,
2013-03-11 13:22:00,52.7,29.1,30.09,North,0,3.0,11.0,40,0.00,,,0.00,meteohub,2013-03-11 18:22:00,
2013-03-11 13:32:00,52.3,31.6,30.09,NNE,24,5.0,11.0,45,0.00,,,0.00,meteohub,2013-03-11 18:32:00,
2013-03-11 13:37:00,52.5,31.3,30.09,WSW,237,5.0,11.0,44,0.00,,,0.00,meteohub,2013-03-11 18:37:00,
2013-03-11 13:42:00,53.2,30.7,30.08,WSW,248,4.0,11.0,42,0.00,,,0.00,meteohub,2013-03-11 18:42:00,
2013-03-11 13:47:00,53.8,33.4,30.08,West,271,7.0,11.0,46,0.00,,,0.00,meteohub,2013-03-11 18:47:00,
2013-03-11 13:52:00,54.1,31.5,30.08,NW,318,3.0,11.0,42,0.00,,,0.00,meteohub,2013-03-11 18:52:00,
2013-03-11 13:57:00,54.1,30.9,30.07,NNE,20,5.0,13.0,41,0.00,,,0.00,meteohub,2013-03-11 18:57:00,
2013-03-11 14:07:00,54.9,34.5,30.07,WSW,252,8.0,13.0,46,0.00,,,0.00,meteohub,2013-03-11 19:07:00,
2013-03-11 14:17:00,55.0,32.9,30.07,West,277,15.0,15.0,43,0.00,,,0.00,meteohub,2013-03-11 19:17:00,
2013-03-11 14:22:00,54.7,30.9,30.06,WNW,294,5.0,15.0,40,0.00,,,0.00,meteohub,2013-03-11 19:22:00,
2013-03-11 14:27:00,54.7,31.5,30.06,NW,323,14.0,15.0,41,0.00,,,0.00,meteohub,2013-03-11 19:27:00,
2013-03-11 14:32:00,54.1,29.7,30.06,NW,310,6.0,18.0,39,0.00,,,0.00,meteohub,2013-03-11 19:32:00,
2013-03-11 14:37:00,54.3,31.6,30.06,SW,230,5.0,18.0,42,0.00,,,0.00,meteohub,2013-03-11 19:37:00,
2013-03-11 14:42:00,54.9,30.4,30.06,NNW,336,6.0,18.0,39,0.00,,,0.00,meteohub,2013-03-11 19:42:00,
2013-03-11 14:47:00,54.7,30.9,30.05,WNW,283,4.0,12.0,40,0.00,,,0.00,meteohub,2013-03-11 19:47:00,
2013-03-11 14:52:00,55.0,31.1,30.06,WNW,300,3.0,12.0,40,0.00,,,0.00,meteohub,2013-03-11 19:52:00,
2013-03-11 14:57:00,54.9,30.4,30.05,NNW,347,5.0,12.0,39,0.00,,,0.00,meteohub,2013-03-11 19:57:00,
2013-03-11 15:02:00,55.0,29.8,30.05,WNW,292,10.0,14.0,38,0.00,,,0.00,meteohub,2013-03-11 20:02:00,
2013-03-11 15:07:00,55.6,30.4,30.06,WSW,246,4.0,14.0,38,0.00,,,0.00,meteohub,2013-03-11 20:07:00,
2013-03-11 15:12:00,55.9,33.3,30.05,SW,236,1.0,14.0,42,0.00,,,0.00,meteohub,2013-03-11 20:12:00,
2013-03-11 15:17:00,56.1,30.2,30.05,West,281,4.0,13.0,37,0.00,,,0.00,meteohub,2013-03-11 20:17:00,
2013-03-11 15:22:00,56.5,31.1,30.05,WNW,297,6.0,13.0,38,0.00,,,0.00,meteohub,2013-03-11 20:22:00,
2013-03-11 15:27:00,56.1,28.8,30.04,NNW,332,3.0,17.0,35,0.00,,,0.00,meteohub,2013-03-11 20:27:00,
2013-03-11 15:37:00,55.6,29.1,30.04,NW,323,4.0,17.0,36,0.00,,,0.00,meteohub,2013-03-11 20:37:00,
2013-03-11 15:42:00,55.8,29.8,30.04,NW,307,6.0,12.0,37,0.00,,,0.00,meteohub,2013-03-11 20:42:00,
2013-03-11 15:47:00,55.9,30.0,30.04,NNW,344,1.0,12.0,37,0.00,,,0.00,meteohub,2013-03-11 20:47:00,
2013-03-11 15:52:00,56.1,27.3,30.04,NNW,348,3.0,12.0,33,0.00,,,0.00,meteohub,2013-03-11 20:52:00,
2013-03-11 16:02:00,55.6,27.7,30.03,NW,306,7.0,14.0,34,0.00,,,0.00,meteohub,2013-03-11 21:02:00,
2013-03-11 16:07:00,55.8,27.1,30.03,WNW,299,8.0,14.0,33,0.00,,,0.00,meteohub,2013-03-11 21:07:00,
2013-03-11 16:12:00,55.9,27.3,30.03,NNW,327,3.0,12.0,33,0.00,,,0.00,meteohub,2013-03-11 21:12:00,
2013-03-11 16:17:00,55.8,27.1,30.03,WNW,298,2.0,12.0,33,0.00,,,0.00,meteohub,2013-03-11 21:17:00,
2013-03-11 16:22:00,55.9,27.3,30.03,NW,321,5.0,11.0,33,0.00,,,0.00,meteohub,2013-03-11 21:22:00,
2013-03-11 16:27:00,55.9,28.8,30.03,NNE,12,6.0,14.0,35,0.00,,,0.00,meteohub,2013-03-11 21:27:00,
2013-03-11 16:32:00,55.9,26.4,30.03,NNW,336,3.0,14.0,32,0.00,,,0.00,meteohub,2013-03-11 21:32:00,
2013-03-11 16:37:00,55.9,27.3,30.02,WNW,290,5.0,9.0,33,0.00,,,0.00,meteohub,2013-03-11 21:37:00,
2013-03-11 16:42:00,56.1,26.6,30.02,NW,323,5.0,12.0,32,0.00,,,0.00,meteohub,2013-03-11 21:42:00,
2013-03-11 16:52:00,57.0,27.5,30.02,WNW,288,0.0,12.0,32,0.00,,,0.00,meteohub,2013-03-11 21:52:00,
2013-03-11 17:02:00,57.4,28.6,30.02,WNW,302,5.0,9.0,33,0.00,,,0.00,meteohub,2013-03-11 22:02:00,
2013-03-11 17:12:00,56.5,27.0,30.02,WNW,294,4.0,13.0,32,0.00,,,0.00,meteohub,2013-03-11 22:12:00,
2013-03-11 17:17:00,55.9,26.4,30.02,WNW,284,5.0,13.0,32,0.00,,,0.00,meteohub,2013-03-11 22:17:00,
2013-03-11 17:27:00,55.6,27.0,30.03,WNW,283,5.0,10.0,33,0.00,,,0.00,meteohub,2013-03-11 22:27:00,
2013-03-11 17:32:00,55.2,25.9,30.03,NW,324,2.0,10.0,32,0.00,,,0.00,meteohub,2013-03-11 22:32:00,
2013-03-11 17:37:00,55.2,25.9,30.03,NW,308,5.0,10.0,32,0.00,,,0.00,meteohub,2013-03-11 22:37:00,
2013-03-11 17:42:00,54.9,26.2,30.03,NNE,32,3.0,9.0,33,0.00,,,0.00,meteohub,2013-03-11 22:42:00,
2013-03-11 17:47:00,54.7,26.8,30.02,WSW,254,5.0,9.0,34,0.00,,,0.00,meteohub,2013-03-11 22:47:00,
2013-03-11 17:52:00,54.7,26.8,30.03,WNW,295,6.0,9.0,34,0.00,,,0.00,meteohub,2013-03-11 22:52:00,
2013-03-11 18:02:00,54.5,25.2,30.02,NW,325,2.0,10.0,32,0.00,,,0.00,meteohub,2013-03-11 23:02:00,
2013-03-11 18:12:00,54.7,25.3,30.02,NW,317,3.0,10.0,32,0.00,,,0.00,meteohub,2013-03-11 23:12:00,
2013-03-11 18:22:00,54.5,26.1,30.02,NW,324,3.0,7.0,33,0.00,,,0.00,meteohub,2013-03-11 23:22:00,
2013-03-11 18:27:00,54.3,25.9,30.02,NW,323,3.0,7.0,33,0.00,,,0.00,meteohub,2013-03-11 23:27:00,
2013-03-11 18:37:00,54.1,25.7,30.03,WNW,298,3.0,8.0,33,0.00,,,0.00,meteohub,2013-03-11 23:37:00,
2013-03-11 18:42:00,54.0,27.0,30.03,WNW,302,4.0,8.0,35,0.00,,,0.00,meteohub,2013-03-11 23:42:00,
2013-03-11 18:47:00,53.8,26.1,30.03,West,268,4.0,8.0,34,0.00,,,0.00,meteohub,2013-03-11 23:47:00,
2013-03-11 18:57:00,53.2,27.0,30.03,West,281,2.0,6.0,36,0.00,,,0.00,meteohub,2013-03-11 23:57:00,
2013-03-11 19:02:00,53.1,26.1,30.03,WNW,288,2.0,6.0,35,0.00,,,0.00,meteohub,2013-03-12 00:02:00,
2013-03-11 19:12:00,52.5,27.7,30.03,WNW,288,1.0,5.0,38,0.00,,,0.00,meteohub,2013-03-12 00:12:00,
2013-03-11 19:22:00,51.6,28.0,30.03,WNW,288,2.0,3.0,40,0.00,,,0.00,meteohub,2013-03-12 00:22:00,
2013-03-11 19:27:00,51.4,28.6,30.03,WNW,288,1.0,3.0,41,0.00,,,0.00,meteohub,2013-03-12 00:27:00,
2013-03-11 19:32:00,50.7,29.1,30.03,WNW,288,1.0,2.0,43,0.00,,,0.00,meteohub,2013-03-12 00:32:00,
2013-03-11 19:42:00,49.6,32.2,30.03,WNW,288,0.0,2.0,51,0.00,,,0.00,meteohub,2013-03-12 00:42:00,
2013-03-11 19:47:00,49.1,31.3,30.03,WNW,288,0.0,2.0,50,0.00,,,0.00,meteohub,2013-03-12 00:47:00,
2013-03-11 19:52:00,48.4,30.6,30.04,WNW,288,2.0,2.0,50,0.00,,,0.00,meteohub,2013-03-12 00:52:00,
2013-03-11 20:02:00,46.9,29.3,30.04,WNW,288,1.0,2.0,50,0.00,,,0.00,meteohub,2013-03-12 01:02:00,
2013-03-11 20:07:00,46.6,30.4,30.04,WNW,288,1.0,2.0,53,0.00,,,0.00,meteohub,2013-03-12 01:07:00,
2013-03-11 20:12:00,46.0,31.6,30.04,WNW,288,2.0,2.0,57,0.00,,,0.00,meteohub,2013-03-12 01:12:00,
2013-03-11 20:17:00,45.3,30.0,30.04,WNW,288,0.0,2.0,55,0.00,,,0.00,meteohub,2013-03-12 01:17:00,
2013-03-11 20:22:00,45.0,28.9,30.04,WNW,288,2.0,2.0,53,0.00,,,0.00,meteohub,2013-03-12 01:22:00,
2013-03-11 20:27:00,44.8,27.7,30.04,WNW,288,1.0,3.0,51,0.00,,,0.00,meteohub,2013-03-12 01:27:00,
2013-03-11 20:32:00,44.6,29.8,30.04,WNW,288,0.0,3.0,56,0.00,,,0.00,meteohub,2013-03-12 01:32:00,
2013-03-11 20:37:00,44.4,30.6,30.04,WNW,288,0.0,3.0,58,0.00,,,0.00,meteohub,2013-03-12 01:37:00,
2013-03-11 20:42:00,44.1,31.5,30.04,WNW,288,1.0,2.0,61,0.00,,,0.00,meteohub,2013-03-12 01:42:00,
2013-03-11 20:47:00,43.7,30.7,30.04,WNW,288,0.0,2.0,60,0.00,,,0.00,meteohub,2013-03-12 01:47:00,
2013-03-11 20:52:00,43.3,29.5,30.04,WNW,288,0.0,2.0,58,0.00,,,0.00,meteohub,2013-03-12 01:52:00,
2013-03-11 21:02:00,42.8,30.2,30.04,WNW,288,0.0,2.0,61,0.00,,,0.00,meteohub,2013-03-12 02:02:00,
2013-03-11 21:07:00,42.4,29.5,30.05,WNW,288,1.0,2.0,60,0.00,,,0.00,meteohub,2013-03-12 02:07:00,
2013-03-11 21:17:00,42.3,29.8,30.05,WNW,288,0.0,2.0,61,0.00,,,0.00,meteohub,2013-03-12 02:17:00,
2013-03-11 21:27:00,41.9,30.2,30.06,WNW,288,1.0,2.0,63,0.00,,,0.00,meteohub,2013-03-12 02:27:00,
2013-03-11 21:37:00,41.5,29.1,30.06,WNW,288,1.0,2.0,61,0.00,,,0.00,meteohub,2013-03-12 02:37:00,
2013-03-11 21:42:00,41.5,29.8,30.06,WNW,288,1.0,2.0,63,0.00,,,0.00,meteohub,2013-03-12 02:42:00,
2013-03-11 21:52:00,41.4,30.0,30.06,WNW,288,1.0,2.0,64,0.00,,,0.00,meteohub,2013-03-12 02:52:00,
2013-03-11 22:02:00,41.2,29.5,30.06,WNW,288,2.0,2.0,63,0.00,,,0.00,meteohub,2013-03-12 03:02:00,
2013-03-11 22:07:00,41.0,28.9,30.06,WNW,288,1.0,2.0,62,0.00,,,0.00,meteohub,2013-03-12 03:07:00,
2013-03-11 22:17:00,41.0,28.6,30.07,WNW,288,0.0,2.0,61,0.00,,,0.00,meteohub,2013-03-12 03:17:00,
2013-03-11 22:22:00,41.0,28.6,30.07,WNW,288,1.0,2.0,61,0.00,,,0.00,meteohub,2013-03-12 03:22:00,
2013-03-11 22:27:00,41.0,29.3,30.07,WNW,288,1.0,2.0,63,0.00,,,0.00,meteohub,2013-03-12 03:27:00,
2013-03-11 22:32:00,41.0,28.2,30.07,WNW,288,0.0,2.0,60,0.00,,,0.00,meteohub,2013-03-12 03:32:00,
2013-03-11 22:42:00,41.0,29.8,30.08,WNW,288,0.0,2.0,64,0.00,,,0.00,meteohub,2013-03-12 03:42:00,
2013-03-11 22:47:00,40.8,28.4,30.08,WNW,288,0.0,2.0,61,0.00,,,0.00,meteohub,2013-03-12 03:47:00,
2013-03-11 22:57:00,40.6,29.8,30.08,WNW,288,0.0,2.0,65,0.00,,,0.00,meteohub,2013-03-12 03:57:00,
2013-03-11 23:02:00,40.5,30.0,30.08,WNW,288,0.0,2.0,66,0.00,,,0.00,meteohub,2013-03-12 04:02:00,
2013-03-11 23:07:00,40.1,29.7,30.08,WNW,288,1.0,2.0,66,0.00,,,0.00,meteohub,2013-03-12 04:07:00,
2013-03-11 23:12:00,39.7,29.3,30.09,WNW,288,1.0,2.0,66,0.00,,,0.00,meteohub,2013-03-12 04:12:00,
2013-03-11 23:17:00,39.4,29.3,30.09,WNW,288,0.0,2.0,67,0.00,,,0.00,meteohub,2013-03-12 04:17:00,
2013-03-11 23:22:00,39.0,29.7,30.09,WNW,288,1.0,2.0,69,0.00,,,0.00,meteohub,2013-03-12 04:22:00,
2013-03-11 23:27:00,38.8,29.1,30.09,WNW,288,0.0,2.0,68,0.00,,,0.00,meteohub,2013-03-12 04:27:00,
2013-03-11 23:32:00,38.8,29.1,30.09,WNW,288,1.0,2.0,68,0.00,,,0.00,meteohub,2013-03-12 04:32:00,
2013-03-11 23:37:00,38.7,28.9,30.09,WNW,288,0.0,2.0,68,0.00,,,0.00,meteohub,2013-03-12 04:37:00,
2013-03-11 23:42:00,38.7,28.6,30.10,WNW,288,1.0,2.0,67,0.00,,,0.00,meteohub,2013-03-12 04:42:00,
2013-03-11 23:47:00,38.7,28.6,30.09,WNW,288,0.0,2.0,67,0.00,,,0.00,meteohub,2013-03-12 04:47:00,
2013-03-11 23:52:00,38.7,28.6,30.09,WNW,288,0.0,2.0,67,0.00,,,0.00,meteohub,2013-03-12 04:52:00,
2013-03-11 23:57:00,38.7,27.1,30.10,WNW,288,0.0,2.0,63,0.00,,,0.00,meteohub,2013-03-12 04:57:00,